User: anonymous   Login
Location: *
(29.1167°S, 130.0000°E)
Time: 14:54:30
(UTC+00:00)
Language:

Envisat - Orbit

View from above orbital plane
View from above orbital plane
View from above satellite
View from above satellite

Ground track
Ground track

The orbit data is extracted from the following two-line orbital elements,

1 27386U 02009A   19262.14151874 -.00000016  00000-0  80259-5 0  9995
2 27386  98.1468 278.4262 0001244  86.8744 313.3784 14.37957361919489
Epoch (UTC): 19 September 2019 03:23:47
Eccentricity: 0.0001244
inclination: 98.1468°
perigee height: 764 km
apogee height: 766 km
right ascension of ascending node: 278.4262°
argument of perigee: 86.8744°
revolutions per day: 14.37957361
mean anomaly at epoch: 313.3784°
orbit number at epoch: 91948

The dashed part of the orbit path shows where the satellite is in the earth's shadow,  

DLR